sat.trackr.live / text

‹ back to catalog

STARLINK-30347

NORAD 57699 · 2023-129B

PAYLOAD ACTIVE UNKNOWN

§ Identity

Operator
Country
US
Launch date
2023-08-27
Launch site
AFETR
Launch vehicle
Mass (kg)
RCS (m²)

Purposes: comms

External: N2YO · Heavens-Above · Gunter

§ Orbital elements

Epoch: 2026-09-20T05:01:23.804256Z

Period
94.27 min
Inclination
43.0020°
Eccentricity
0.0001071
Mean motion
15.27574423 rev/d
Perigee alt
482.3 km
Apogee alt
483.8 km
Semi-major
6,861.2 km
B*
2.9018e-6
RAAN
88.1256°
Arg perigee
267.7431°
Mean anomaly
92.3298°
Rev number
17,056

§ Raw data

STARLINK-303471 57699U 23129B   26263.20930329 -.00000182  00000+0  29018-5 0  99962 57699  43.0020  88.1256 0001071 267.7431  92.3298 15.27574423170568

JSON: /api/v1/satellites/57699 · /tle

For live sub-satellite position, see the globe view (requires WebGL).

§ Visibility from observer

Set your observer location to see the next 7 days of passes ≥ 10°. The values pass through the URL so the page stays shareable.

No JS? Fill the form by hand. The geolocation button needs JavaScript.